| time (UTC) | temp F | wind direction | speed MPH | gust MPH | rain 1hr in | rain 24hr in | rain mn in | humidity % | barometer mb |
| 20260502170315 | 57 | 183 | 1.0 | 3.0 | 0.83 | 0.83 | 0.17 | 88 | 1011.9 |
| 20260502163345 | 61 | 197 | 6.0 | 11.0 | 0.24 | 0.24 | 0.05 | 78 | 1012.3 |
| 20260502160317 | 64 | 119 | 0.0 | 4.0 | 0.00 | 0.00 | 0.00 | 70 | 1012.0 |
| 20260502150325 | 65 | 146 | 0.0 | 6.0 | 0.00 | 0.00 | 0.00 | 62 | 1012.4 |
| 20260502130322 | 65 | 189 | 3.0 | 8.0 | 0.00 | 0.00 | 0.00 | 62 | 1014.4 |
| 20260502123338 | 68 | 158 | 2.0 | 6.0 | 0.00 | 0.00 | 0.00 | 62 | 1014.5 |
| 20260502120327 | 67 | 223 | 4.0 | 6.0 | 0.00 | 0.00 | 0.00 | 59 | 1015.0 |
| 20260502113322 | 64 | 152 | 2.0 | 10.0 | 0.00 | 0.00 | 0.00 | 63 | 1015.3 |
| 20260502110317 | 64 | 187 | 1.0 | 7.0 | 0.00 | 0.00 | 0.00 | 66 | 1015.8 |
| 20260502103330 | 62 | 196 | 4.0 | 9.0 | 0.00 | 0.00 | 0.00 | 67 | 1015.9 |
| 20260502100344 | 61 | 142 | 1.0 | 6.0 | 0.00 | 0.00 | 0.00 | 69 | 1016.3 |
| 20260502090330 | 61 | 114 | 1.0 | 5.0 | 0.00 | 0.00 | 0.00 | 75 | 1016.7 |
| 20260502070342 | 49 | 246 | 0.0 | 2.0 | 0.00 | 0.00 | 0.00 | 95 | 1017.4 |
| 20260502063315 | 46 | 242 | 0.0 | 0.0 | 0.00 | 0.00 | 0.00 | 95 | 1017.4 |
| 20260502060329 | 45 | 242 | 0.0 | 0.0 | 0.00 | 0.00 | 0.00 | 94 | 1017.5 |
| 20260502053344 | 44 | 254 | 1.0 | 2.0 | 0.00 | 0.00 | 0.00 | 94 | 1017.4 |
| 20260502050337 | 43 | 256 | 0.0 | 0.0 | 0.00 | 0.00 | 0.00 | 94 | 1017.3 |
| 20260502043346 | 44 | 256 | 0.0 | 0.0 | 0.00 | 0.00 | 0.00 | 93 | 1017.3 |
| 20260502040319 | 44 | 256 | 0.0 | 0.0 | 0.00 | 0.00 | 0.00 | 94 | 1017.5 |
| 20260502033333 | 43 | 256 | 0.0 | 0.0 | 0.00 | 0.00 | 0.00 | 93 | 1017.6 |
| 20260502030348 | 42 | 256 | 0.0 | 0.0 | 0.00 | 0.00 | 0.00 | 92 | 1017.6 |
| 20260502023320 | 44 | 256 | 0.0 | 0.0 | 0.00 | 0.00 | 0.00 | 93 | 1017.8 |
| 20260502020313 | 44 | 257 | 0.0 | 0.0 | 0.00 | 0.00 | 0.00 | 92 | 1017.7 |
| 20260502013328 | 45 | 256 | 0.0 | 0.0 | 0.00 | 0.00 | 0.00 | 91 | 1018.1 |
| 20260502010342 | 46 | 256 | 0.0 | 0.0 | 0.00 | 0.00 | 0.00 | 91 | 1018.4 |
| 20260502003351 | 47 | 256 | 0.0 | 0.0 | 0.00 | 0.00 | 0.00 | 91 | 1018.5 |
| 20260502000325 | 48 | 256 | 0.0 | 0.0 | 0.00 | 0.00 | 0.00 | 90 | 1018.8 |
| 20260501233318 | 49 | 256 | 0.0 | 1.0 | 0.00 | 0.00 | 0.00 | 90 | 1018.7 |
| 20260501230313 | 50 | 256 | 0.0 | 2.0 | 0.00 | 0.00 | 0.00 | 90 | 1018.9 |
| 20260501223328 | 52 | 256 | 0.0 | 1.0 | 0.00 | 0.00 | 0.00 | 89 | 1018.9 |
| 20260501220321 | 52 | 256 | 0.0 | 1.0 | 0.00 | 0.00 | 0.00 | 89 | 1018.9 |
| 20260501213317 | 54 | 256 | 0.0 | 0.0 | 0.00 | 0.00 | 0.00 | 87 | 1018.8 |
| 20260501210331 | 56 | 256 | 0.0 | 2.0 | 0.00 | 0.00 | 0.00 | 86 | 1018.9 |
| 20260501203325 | 56 | 252 | 2.0 | 5.0 | 0.00 | 0.00 | 0.00 | 85 | 1018.7 |
| 20260501200314 | 58 | 300 | 1.0 | 2.0 | 0.00 | 0.00 | 0.00 | 84 | 1018.7 |
| 20260501193328 | 58 | 264 | 1.0 | 4.0 | 0.00 | 0.00 | 0.00 | 83 | 1018.5 |
| 20260501190322 | 60 | 244 | 2.0 | 8.0 | 0.00 | 0.00 | 0.00 | 80 | 1018.4 |
| 20260501183318 | 61 | 223 | 4.0 | 8.0 | 0.00 | 0.00 | 0.00 | 78 | 1018.4 |
| 20260501180330 | 61 | 233 | 4.0 | 10.0 | 0.00 | 0.00 | 0.00 | 79 | 1018.4 |
| 20260501173324 | 62 | 248 | 2.0 | 10.0 | 0.00 | 0.00 | 0.00 | 79 | 1018.2 |